Sacramento / Mc Clellan, CA

9:12 PM PDT on June 24, 2017 (GMT -0700)
McClellan

Weather History for KMCC - March, 2013

Change the Weather History Date:

Monday, March 25, 2013

  Actual Average (KMHR) Record (KMHR)
Temperature  
Mean Temperature 58 °F -  
Max Temperature 68 °F 67 °F 80 °F (1997)
Min Temperature 48 °F 42 °F 35 °F (2002)
Degree Days  
Heating Degree Days 7    
Growing Degree Days 8 (Base 50)    
Moisture  
Dew Point 42 °F    
Average Humidity 60    
Maximum Humidity 82    
Minimum Humidity 33    
Precipitation  
Precipitation 0.00 in - - ()
Sea Level Pressure  
Sea Level Pressure 29.97 in    
Wind  
Wind Speed 9 mph (SSE)    
Max Wind Speed 18 mph    
Max Gust Speed 23 mph    
Visibility 9 miles    
Events      
Averages and records for this station are not official NWS values.
T = Trace of Precipitation, MM = Missing Value Source: NWS Daily Summary

Daily Weather History Graph

Daily Weather History Graph

Search for Another Location

Airport or City:

Trip Planner

Search our weather history database for the weather conditions in past years. The results will help you decide how hot, cold, wet, or windy it might be!

Date:

Astronomy

Mar. 25, 2013 Rise Set
Actual Time 7:00 AM PDT 7:22 PM PDT
Civil Twilight 6:34 AM PDT 7:49 PM PDT
Nautical Twilight 6:02 AM PDT 8:20 PM PDT
Astronomical Twilight 5:31 AM PDT 8:52 PM PDT
Moon 6:00 PM PDT 5:46 AM PDT
Length of Visible Light 13h 15m
Length of Day
12h 21m
Waxing Gibbous, 97% of the Moon is Illuminated
Mar 25
Waxing Gibbous
Mar 27
Full
Apr 2
Last Quarter
Apr 10
New
Apr 18
First Quarter

Hourly Weather History & Observations

Time (PDT) Temp. Dew Point Humidity Pressure Visibility Wind Dir Wind Speed Gust Speed Precip Events Conditions
12:05 AM 53.6 °F 44.6 °F 72% 29.98 in 10.0 mi SE 6.9 mph - N/A   Clear
12:25 AM 53.6 °F 44.6 °F 72% 29.98 in 10.0 mi SSE 6.9 mph - N/A   Clear
12:45 AM 53.6 °F 44.6 °F 72% 29.98 in 10.0 mi SE 8.1 mph - N/A   Clear
1:05 AM 53.6 °F 44.6 °F 72% 29.98 in 10.0 mi SE 6.9 mph - N/A   Clear
1:25 AM 53.6 °F 44.6 °F 72% 29.98 in 10.0 mi SE 6.9 mph - N/A   Clear
1:45 AM 53.6 °F 44.6 °F 72% 29.98 in 10.0 mi ESE 6.9 mph - N/A   Clear
2:05 AM 50.0 °F 44.6 °F 82% 29.98 in 10.0 mi SE 6.9 mph - N/A   Clear
2:25 AM 51.8 °F 42.8 °F 71% 29.98 in 10.0 mi SE 5.8 mph - N/A   Clear
2:45 AM 50.0 °F 42.8 °F 76% 29.98 in 10.0 mi SE 8.1 mph - N/A   Clear
3:05 AM 50.0 °F 42.8 °F 76% 29.98 in 10.0 mi SE 8.1 mph - N/A   Clear
3:25 AM 50.0 °F 41.0 °F 71% 29.98 in 10.0 mi SE 8.1 mph - N/A   Clear
3:45 AM 50.0 °F 41.0 °F 71% 29.97 in 10.0 mi SE 8.1 mph - N/A   Clear
4:05 AM 48.2 °F 41.0 °F 76% 29.97 in 10.0 mi SE 6.9 mph - N/A   Clear
4:25 AM 48.2 °F 41.0 °F 76% 29.97 in 10.0 mi SSE 9.2 mph - N/A   Clear
4:45 AM 48.2 °F 41.0 °F 76% 29.98 in 10.0 mi SSE 8.1 mph - N/A   Clear
5:05 AM 48.2 °F 41.0 °F 76% 29.98 in 10.0 mi SSE 6.9 mph - N/A   Clear
5:25 AM 48.2 °F 41.0 °F 76% 29.98 in 10.0 mi South 9.2 mph - N/A   Clear
5:45 AM 48.2 °F 41.0 °F 76% 29.98 in 10.0 mi SSE 6.9 mph - N/A   Clear
6:05 AM 48.2 °F 41.0 °F 76% 29.98 in 10.0 mi South 8.1 mph - N/A   Clear
6:25 AM 48.2 °F 41.0 °F 76% 29.98 in 10.0 mi South 9.2 mph - N/A   Clear
6:45 AM 48.2 °F 41.0 °F 76% 29.98 in 9.0 mi South 9.2 mph - N/A   Clear
7:05 AM 48.2 °F 42.8 °F 82% 29.99 in 8.0 mi South 8.1 mph - N/A   Clear
7:25 AM 48.2 °F 42.8 °F 82% 29.99 in 8.0 mi South 8.1 mph - N/A   Clear
7:45 AM 50.0 °F 42.8 °F 76% 29.99 in 8.0 mi South 6.9 mph - N/A   Clear
8:05 AM 50.0 °F 44.6 °F 82% 30.00 in 8.0 mi South 8.1 mph - N/A   Clear
8:25 AM 51.8 °F 44.6 °F 76% 30.00 in 8.0 mi SSE 9.2 mph - N/A   Clear
8:45 AM 53.6 °F 44.6 °F 72% 30.00 in 8.0 mi SSE 8.1 mph - N/A   Clear
9:05 AM 53.6 °F 44.6 °F 72% 30.01 in 9.0 mi SSE 6.9 mph - N/A   Clear
9:25 AM 55.4 °F 44.6 °F 67% 30.01 in 8.0 mi SE 8.1 mph - N/A   Clear
9:45 AM 55.4 °F 44.6 °F 67% 30.00 in 8.0 mi SE 9.2 mph - N/A   Clear
10:05 AM 57.2 °F 44.6 °F 63% 30.01 in 8.0 mi SE 6.9 mph - N/A   Clear
10:25 AM 57.2 °F 46.4 °F 67% 30.01 in 7.0 mi SSE 8.1 mph - N/A   Clear
10:45 AM 59.0 °F 46.4 °F 63% 30.00 in 8.0 mi SE 8.1 mph - N/A   Clear
11:05 AM 60.8 °F 46.4 °F 59% 30.00 in 7.0 mi SSE 8.1 mph - N/A   Clear
11:25 AM 62.6 °F 46.4 °F 55% 30.00 in 8.0 mi SSE 9.2 mph - N/A   Clear
11:45 AM 64.4 °F 46.4 °F 52% 30.00 in 9.0 mi SE 8.1 mph - N/A   Clear
12:05 PM 64.4 °F 44.6 °F 49% 30.00 in 9.0 mi South 8.1 mph - N/A   Clear
12:25 PM 64.4 °F 44.6 °F 49% 29.99 in 9.0 mi South 10.4 mph - N/A   Clear
12:45 PM 64.4 °F 44.6 °F 49% 29.99 in 9.0 mi South 9.2 mph - N/A   Clear
1:05 PM 66.2 °F 44.6 °F 46% 29.98 in 9.0 mi SSE 10.4 mph - N/A   Clear
1:25 PM 66.2 °F 46.4 °F 49% 29.98 in 9.0 mi SSW 8.1 mph - N/A   Clear
1:45 PM 66.2 °F 46.4 °F 49% 29.97 in 8.0 mi SSW 10.4 mph - N/A   Clear
2:05 PM 66.2 °F 46.4 °F 49% 29.97 in 9.0 mi South 10.4 mph - N/A   Clear
2:25 PM 66.2 °F 44.6 °F 46% 29.97 in 9.0 mi South 9.2 mph - N/A   Clear
2:45 PM 66.2 °F 39.2 °F 37% 29.96 in 9.0 mi SSW 8.1 mph - N/A   Clear
3:05 PM 66.2 °F 39.2 °F 37% 29.95 in 9.0 mi South 9.2 mph 16.1 mph N/A   Clear
3:25 PM 66.2 °F 37.4 °F 35% 29.94 in 9.0 mi South 11.5 mph - N/A   Clear
3:45 PM 68.0 °F 37.4 °F 33% 29.94 in 10.0 mi South 9.2 mph 18.4 mph N/A   Clear
4:05 PM 68.0 °F 39.2 °F 35% 29.93 in 9.0 mi South 10.4 mph 16.1 mph N/A   Clear
4:25 PM 68.0 °F 41.0 °F 37% 29.92 in 9.0 mi South 11.5 mph - N/A   Clear
4:45 PM 68.0 °F 41.0 °F 37% 29.92 in 9.0 mi South 11.5 mph - N/A   Clear
5:05 PM 66.2 °F 41.0 °F 40% 29.92 in 9.0 mi SSW 10.4 mph - N/A   Clear
5:25 PM 64.4 °F 44.6 °F 49% 29.92 in 10.0 mi SSW 13.8 mph - N/A   Unknown
5:45 PM 64.4 °F 44.6 °F 49% 29.92 in 10.0 mi SW 10.4 mph - N/A   Clear
6:05 PM 62.6 °F 42.8 °F 48% 29.92 in 9.0 mi SSW 10.4 mph - N/A   Clear
6:25 PM 62.6 °F 39.2 °F 42% 29.91 in 10.0 mi South 11.5 mph - N/A   Clear
6:45 PM 62.6 °F 35.6 °F 37% 29.92 in 10.0 mi South 10.4 mph - N/A   Clear
7:05 PM 60.8 °F 32.0 °F 34% 29.92 in 10.0 mi South 13.8 mph - N/A   Clear
7:25 PM 59.0 °F 33.8 °F 39% 29.91 in 10.0 mi South 12.7 mph - N/A   Clear
7:45 PM 57.2 °F 35.6 °F 44% 29.92 in 10.0 mi South 12.7 mph - N/A   Clear
8:05 PM 57.2 °F 39.2 °F 51% 29.93 in 10.0 mi SSW 13.8 mph - N/A   Clear
8:25 PM 55.4 °F 39.2 °F 54% 29.93 in 10.0 mi SSW 13.8 mph - N/A   Clear
8:45 PM 55.4 °F 39.2 °F 54% 29.94 in 10.0 mi SSW 18.4 mph 23.0 mph N/A   Clear
9:05 PM 55.4 °F 39.2 °F 54% 29.96 in 10.0 mi SSW 17.3 mph 23.0 mph N/A   Clear
9:25 PM 53.6 °F 37.4 °F 54% 29.96 in 10.0 mi South 11.5 mph - N/A   Clear
9:45 PM 53.6 °F 37.4 °F 54% 29.96 in 10.0 mi South 12.7 mph - N/A   Clear
10:05 PM 53.6 °F 37.4 °F 54% 29.94 in 10.0 mi SE 11.5 mph - N/A   Clear
10:25 PM 53.6 °F 37.4 °F 54% 29.97 in 10.0 mi SSE 8.1 mph - N/A   Clear
10:45 PM 51.8 °F 39.2 °F 62% 29.97 in 10.0 mi SE 9.2 mph - N/A   Partly Cloudy
11:05 PM 51.8 °F 39.2 °F 62% 29.97 in 10.0 mi SE 13.8 mph - N/A   Mostly Cloudy
11:25 PM 51.8 °F 41.0 °F 67% 29.96 in 10.0 mi SE 13.8 mph - N/A   Overcast
11:45 PM 50.0 °F 39.2 °F 66% 29.96 in 10.0 mi SSE 15.0 mph 19.6 mph N/A   Scattered Clouds